IBE07MM LEMD-EGLL

Flight info

Callsign IBE07MM
Flight time 1h 40m
Altitude 34000
Route SIE2N SIE N858 DGO N867 NENEM/N0466F380 DCT YURZI DCT ERIGA DCT ARTIV DCT REVTU/N0456F340 UP87 ROXOG ROXOG1H
Aircraft A346/H-SDE2E3GHIJ1J3J4J5LM1ORWXYZ/C

Departure

Time 2026-05-07 09:08
Airport Adolfo Suárez Madrid–Barajas Airport (LEMD)

Arrival

Time 2026-05-07 10:49
Airport London Heathrow Airport (EGLL)
Time Latitude Longitude Altitude Speed Heading
2026-05-07 08:58 40.49058 -3.56883 1985 ft 0 kts 90°
2026-05-07 08:59 40.49058 -3.56907 1987 ft 0 kts 90°
2026-05-07 08:59 40.49058 -3.56942 1987 ft 0 kts 90°
2026-05-07 08:59 40.49055 -3.56972 1988 ft 0 kts 70°
2026-05-07 08:59 40.49044 -3.56988 1989 ft 0 kts 29°
2026-05-07 09:00 40.49027 -3.56993 1988 ft 0 kts 356°
2026-05-07 09:00 40.49025 -3.56993 1987 ft 0 kts 356°
2026-05-07 09:03 40.49030 -3.56995 1989 ft 3 kts 346°
2026-05-07 09:04 40.49048 -3.57020 1991 ft 5 kts 297°
2026-05-07 09:04 40.49057 -3.57064 1991 ft 5 kts 273°
2026-05-07 09:04 40.49057 -3.57108 1992 ft 6 kts 269°
2026-05-07 09:04 40.49056 -3.57165 1993 ft 6 kts 269°
2026-05-07 09:05 40.49056 -3.57225 1994 ft 7 kts 269°
2026-05-07 09:05 40.49061 -3.57290 1994 ft 8 kts 292°
2026-05-07 09:05 40.49096 -3.57350 1995 ft 9 kts 313°
2026-05-07 09:05 40.49143 -3.57414 1994 ft 8 kts 315°
2026-05-07 09:06 40.49197 -3.57448 1995 ft 10 kts 355°
2026-05-07 09:06 40.49226 -3.57449 1994 ft 0 kts 358°
2026-05-07 09:07 40.49426 -3.57452 1992 ft 64 kts
2026-05-07 09:07 40.50095 -3.57456 1996 ft 127 kts 359°
2026-05-07 09:08 40.51158 -3.57464 2046 ft 174 kts
2026-05-07 09:08 40.52387 -3.57479 2541 ft 184 kts
2026-05-07 09:08 40.53688 -3.57511 3176 ft 190 kts 360°
2026-05-07 09:08 40.55037 -3.57549 3913 ft 192 kts
2026-05-07 09:09 40.56363 -3.57255 4396 ft 202 kts 16°
2026-05-07 09:09 40.57752 -3.56701 4842 ft 216 kts 19°
2026-05-07 09:09 40.59225 -3.56104 5346 ft 227 kts 19°
2026-05-07 09:09 40.60766 -3.55483 5888 ft 237 kts 19°
2026-05-07 09:10 40.62398 -3.54834 6374 ft 253 kts 19°
2026-05-07 09:10 40.64122 -3.54250 7072 ft 259 kts 10°
2026-05-07 09:10 40.65917 -3.54010 7923 ft 259 kts
2026-05-07 09:10 40.67723 -3.53853 8785 ft 261 kts
2026-05-07 09:11 40.69540 -3.53724 9624 ft 263 kts
2026-05-07 09:11 40.71381 -3.53558 10352 ft 268 kts
2026-05-07 09:11 40.73255 -3.53380 11079 ft 271 kts
2026-05-07 09:11 40.75148 -3.53267 11882 ft 274 kts 359°
2026-05-07 09:12 40.77063 -3.53405 12637 ft 280 kts 352°
2026-05-07 09:12 40.79051 -3.53746 13162 ft 297 kts 351°
2026-05-07 09:12 40.81154 -3.54148 13639 ft 314 kts 351°
2026-05-07 09:12 40.83379 -3.54574 14061 ft 332 kts 351°
2026-05-07 09:13 40.85731 -3.55016 14463 ft 350 kts 351°
2026-05-07 09:13 40.88207 -3.55475 14829 ft 368 kts 351°
2026-05-07 09:13 40.90808 -3.55955 15188 ft 386 kts 351°
2026-05-07 09:13 40.93524 -3.56455 15672 ft 399 kts 351°
2026-05-07 09:14 40.96293 -3.56965 16421 ft 404 kts 351°
2026-05-07 09:14 40.99091 -3.57481 17245 ft 408 kts 351°
2026-05-07 09:14 41.01917 -3.58003 18022 ft 413 kts 351°
2026-05-07 09:14 41.04784 -3.58533 18684 ft 418 kts 351°
2026-05-07 09:15 41.07682 -3.59071 19310 ft 423 kts 351°
2026-05-07 09:15 41.10611 -3.59614 19975 ft 427 kts 351°
2026-05-07 09:15 41.13570 -3.60164 20651 ft 431 kts 351°
2026-05-07 09:15 41.16561 -3.60656 21303 ft 437 kts 355°
2026-05-07 09:16 41.19618 -3.60517 21938 ft 442 kts
2026-05-07 09:16 41.22623 -3.59587 22589 ft 446 kts 19°
2026-05-07 09:16 41.25427 -3.57916 23225 ft 449 kts 31°
2026-05-07 09:16 41.27999 -3.55540 23812 ft 452 kts 40°
2026-05-07 09:17 41.30506 -3.52979 24336 ft 457 kts 36°
2026-05-07 09:17 41.33268 -3.50817 24817 ft 464 kts 27°
2026-05-07 09:17 41.36218 -3.49016 25335 ft 468 kts 24°
2026-05-07 09:17 41.39231 -3.47301 25852 ft 473 kts 23°
2026-05-07 09:18 41.42288 -3.45617 26347 ft 478 kts 22°
2026-05-07 09:18 41.45379 -3.43930 26845 ft 482 kts 22°
2026-05-07 09:18 41.48501 -3.42221 27293 ft 487 kts 22°
2026-05-07 09:18 41.51649 -3.40491 27739 ft 493 kts 22°
2026-05-07 09:19 41.54836 -3.38736 28231 ft 497 kts 22°
2026-05-07 09:19 41.58042 -3.36968 28758 ft 500 kts 22°
2026-05-07 09:19 41.61262 -3.35191 29343 ft 501 kts 22°
2026-05-07 09:19 41.64478 -3.33414 30059 ft 500 kts 22°
2026-05-07 09:20 41.67691 -3.31636 30675 ft 498 kts 22°
2026-05-07 09:20 41.70889 -3.29866 31285 ft 497 kts 22°
2026-05-07 09:20 41.74083 -3.28095 31888 ft 496 kts 22°
2026-05-07 09:20 41.77267 -3.26328 32498 ft 495 kts 22°
2026-05-07 09:21 41.80444 -3.24563 33087 ft 493 kts 22°
2026-05-07 09:21 41.83613 -3.22799 33674 ft 493 kts 22°
2026-05-07 09:21 41.86776 -3.21036 34191 ft 492 kts 22°
2026-05-07 09:21 41.89933 -3.19273 34684 ft 491 kts 22°
2026-05-07 09:22 41.93076 -3.17515 35159 ft 489 kts 22°
2026-05-07 09:22 41.96215 -3.15758 35659 ft 487 kts 22°
2026-05-07 09:22 41.99341 -3.14008 36121 ft 486 kts 22°
2026-05-07 09:22 42.02454 -3.12263 36536 ft 485 kts 22°
2026-05-07 09:23 42.05572 -3.10515 36878 ft 486 kts 22°
2026-05-07 09:23 42.08700 -3.08759 37189 ft 487 kts 22°
2026-05-07 09:23 42.11831 -3.07000 37492 ft 488 kts 21°
2026-05-07 09:23 42.14972 -3.05234 37782 ft 489 kts 21°
2026-05-07 09:24 42.18119 -3.03459 37970 ft 491 kts 21°
2026-05-07 09:24 42.21274 -3.01681 37967 ft 492 kts 21°
2026-05-07 09:24 42.27587 -2.98120 37979 ft 492 kts 21°
2026-05-07 09:25 42.33861 -2.94568 37981 ft 492 kts 21°
2026-05-07 09:25 42.40271 -2.91366 37984 ft 491 kts 14°
2026-05-07 09:26 42.46952 -2.89617 37985 ft 488 kts
2026-05-07 09:26 42.53712 -2.89438 37988 ft 485 kts 353°
2026-05-07 09:27 42.60411 -2.90438 37993 ft 484 kts 350°
2026-05-07 09:28 42.70428 -2.92158 37993 ft 484 kts 350°
2026-05-07 09:28 42.77108 -2.93282 37992 ft 484 kts 350°
2026-05-07 09:29 42.83794 -2.94398 37991 ft 484 kts 350°
2026-05-07 09:29 42.90477 -2.95514 37990 ft 484 kts 350°
2026-05-07 09:30 42.97156 -2.96630 37994 ft 484 kts 350°
2026-05-07 09:30 43.03836 -2.97747 37999 ft 484 kts 350°
2026-05-07 09:31 43.10519 -2.98869 38004 ft 484 kts 350°
2026-05-07 09:31 43.17202 -2.99993 38002 ft 484 kts 350°
2026-05-07 09:32 43.23886 -3.01121 38008 ft 483 kts 350°
2026-05-07 09:32 43.30155 -3.02180 38006 ft 483 kts 350°
2026-05-07 09:33 43.36829 -3.03308 38012 ft 483 kts 350°
2026-05-07 09:33 43.43500 -3.04441 38007 ft 483 kts 350°
2026-05-07 09:34 43.50179 -3.05577 38008 ft 484 kts 351°
2026-05-07 09:34 43.56866 -3.06717 38002 ft 484 kts 351°
2026-05-07 09:35 43.63508 -3.07850 37994 ft 484 kts 351°
2026-05-07 09:35 43.70187 -3.08993 37996 ft 484 kts 351°
2026-05-07 09:36 43.76882 -3.10142 37996 ft 484 kts 350°
2026-05-07 09:36 43.83566 -3.11290 37996 ft 484 kts 350°
2026-05-07 09:37 43.90246 -3.12441 37999 ft 484 kts 350°
2026-05-07 09:37 43.96929 -3.13549 38000 ft 484 kts 352°
2026-05-07 09:38 44.03666 -3.13889 38006 ft 486 kts 359°
2026-05-07 09:38 44.10413 -3.13163 38005 ft 487 kts
2026-05-07 09:39 44.17091 -3.11427 38010 ft 488 kts 11°
2026-05-07 09:39 44.23722 -3.09365 38011 ft 488 kts 11°
2026-05-07 09:40 44.30347 -3.07298 38015 ft 488 kts 11°
2026-05-07 09:40 44.36972 -3.05241 38004 ft 488 kts 11°
2026-05-07 09:41 44.43598 -3.03186 38020 ft 487 kts 11°
2026-05-07 09:41 44.50223 -3.01130 38016 ft 487 kts 11°
2026-05-07 09:42 44.56842 -2.99071 38016 ft 487 kts 11°
2026-05-07 09:42 44.63459 -2.97008 38021 ft 487 kts 11°
2026-05-07 09:43 44.70074 -2.94941 38021 ft 487 kts 11°
2026-05-07 09:43 44.76687 -2.92870 38024 ft 487 kts 11°
2026-05-07 09:44 44.83300 -2.90794 38025 ft 487 kts 11°
2026-05-07 09:44 44.89909 -2.88714 38032 ft 487 kts 11°
2026-05-07 09:45 44.96524 -2.86627 38040 ft 487 kts 11°
2026-05-07 09:45 45.03124 -2.84540 38034 ft 486 kts 11°
2026-05-07 09:46 45.09733 -2.82445 38032 ft 486 kts 11°
2026-05-07 09:46 45.16337 -2.80347 38044 ft 486 kts 11°
2026-05-07 09:47 45.22888 -2.78262 38029 ft 486 kts 11°
2026-05-07 09:47 45.29482 -2.76157 38035 ft 486 kts 11°
2026-05-07 09:48 45.36074 -2.74047 38045 ft 485 kts 11°
2026-05-07 09:48 45.42657 -2.71936 38035 ft 485 kts 11°
2026-05-07 09:49 45.49243 -2.69817 38033 ft 485 kts 11°
2026-05-07 09:49 45.55830 -2.67695 38040 ft 485 kts 11°
2026-05-07 09:50 45.62411 -2.65570 38038 ft 485 kts 11°
2026-05-07 09:50 45.68992 -2.63439 38047 ft 485 kts 11°
2026-05-07 09:51 45.75565 -2.61305 38060 ft 484 kts 11°
2026-05-07 09:51 45.82134 -2.59168 38048 ft 483 kts 11°
2026-05-07 09:52 45.88693 -2.57027 38044 ft 483 kts 11°
2026-05-07 09:52 45.95252 -2.54883 38055 ft 483 kts 11°
2026-05-07 09:53 46.01810 -2.52733 38047 ft 483 kts 11°
2026-05-07 09:53 46.08367 -2.50578 38048 ft 483 kts 11°
2026-05-07 09:54 46.14923 -2.48428 38064 ft 483 kts 10°
2026-05-07 09:54 46.21538 -2.46896 38052 ft 481 kts
2026-05-07 09:55 46.28183 -2.45811 38047 ft 481 kts
2026-05-07 09:55 46.34786 -2.44753 38059 ft 481 kts
2026-05-07 09:56 46.41429 -2.43673 38050 ft 480 kts
2026-05-07 09:56 46.48071 -2.42583 38051 ft 480 kts
2026-05-07 09:57 46.54715 -2.41488 38057 ft 480 kts
2026-05-07 09:57 46.60277 -2.40570 38052 ft 480 kts
2026-05-07 09:58 46.67998 -2.39292 38049 ft 480 kts
2026-05-07 09:58 46.74637 -2.38189 38049 ft 480 kts
2026-05-07 09:59 46.81277 -2.37084 38048 ft 480 kts
2026-05-07 09:59 46.87914 -2.35859 38049 ft 481 kts
2026-05-07 10:00 46.94523 -2.34302 38054 ft 481 kts
2026-05-07 10:00 47.00012 -2.32979 38050 ft 481 kts
2026-05-07 10:01 47.06623 -2.31390 38047 ft 481 kts
2026-05-07 10:01 47.13234 -2.29804 38038 ft 481 kts
2026-05-07 10:02 47.19841 -2.28218 38041 ft 481 kts
2026-05-07 10:02 47.26449 -2.26627 38036 ft 481 kts
2026-05-07 10:03 47.33058 -2.25032 38035 ft 481 kts
2026-05-07 10:03 47.39662 -2.23435 38039 ft 481 kts
2026-05-07 10:04 47.46260 -2.21834 38034 ft 481 kts
2026-05-07 10:04 47.52858 -2.20230 38038 ft 480 kts
2026-05-07 10:05 47.59456 -2.18622 38045 ft 480 kts
2026-05-07 10:05 47.66052 -2.17010 38043 ft 480 kts
2026-05-07 10:06 47.72644 -2.15395 38043 ft 480 kts
2026-05-07 10:06 47.79239 -2.13775 38053 ft 480 kts
2026-05-07 10:07 47.85828 -2.12153 38047 ft 480 kts
2026-05-07 10:07 47.92416 -2.10526 38046 ft 480 kts
2026-05-07 10:08 47.98956 -2.08907 38049 ft 479 kts
2026-05-07 10:08 48.05581 -2.07263 38052 ft 479 kts
2026-05-07 10:09 48.12159 -2.05626 38052 ft 479 kts
2026-05-07 10:09 48.18736 -2.03985 38054 ft 479 kts
2026-05-07 10:10 48.25271 -2.02351 38059 ft 479 kts
2026-05-07 10:10 48.31839 -2.00704 38058 ft 479 kts
2026-05-07 10:11 48.38404 -1.99053 38056 ft 478 kts
2026-05-07 10:11 48.44969 -1.97398 38060 ft 478 kts
2026-05-07 10:12 48.51530 -1.95740 38060 ft 478 kts
2026-05-07 10:12 48.58093 -1.94077 38062 ft 478 kts
2026-05-07 10:13 48.64655 -1.92410 38071 ft 478 kts
2026-05-07 10:13 48.71205 -1.90741 38063 ft 477 kts
2026-05-07 10:14 48.77752 -1.89068 38064 ft 477 kts
2026-05-07 10:14 48.84303 -1.87390 38071 ft 477 kts
2026-05-07 10:15 48.90871 -1.85938 38068 ft 477 kts
2026-05-07 10:15 48.97450 -1.84686 38070 ft 477 kts
2026-05-07 10:16 49.04032 -1.83430 38073 ft 477 kts
2026-05-07 10:16 49.10611 -1.82163 38083 ft 476 kts
2026-05-07 10:17 49.17171 -1.80890 38068 ft 475 kts
2026-05-07 10:17 49.23689 -1.79622 38075 ft 475 kts
2026-05-07 10:18 49.30248 -1.78342 38075 ft 475 kts
2026-05-07 10:18 49.36807 -1.77058 38072 ft 475 kts
2026-05-07 10:19 49.43365 -1.75771 38064 ft 475 kts
2026-05-07 10:19 49.46652 -1.75125 37891 ft 477 kts
2026-05-07 10:19 49.49955 -1.74475 37199 ft 479 kts
2026-05-07 10:19 49.53258 -1.73823 36609 ft 478 kts
2026-05-07 10:20 49.56559 -1.73170 36006 ft 478 kts
2026-05-07 10:20 49.59855 -1.72586 35436 ft 476 kts
2026-05-07 10:20 49.63155 -1.72224 34859 ft 475 kts
2026-05-07 10:20 49.66456 -1.71938 34290 ft 475 kts
2026-05-07 10:21 49.69754 -1.71673 33642 ft 474 kts
2026-05-07 10:21 49.73048 -1.71410 32977 ft 474 kts
2026-05-07 10:21 49.76333 -1.71140 32351 ft 473 kts
2026-05-07 10:21 49.79619 -1.70867 31720 ft 472 kts
2026-05-07 10:22 49.82912 -1.70592 31084 ft 471 kts
2026-05-07 10:22 49.86188 -1.70317 30445 ft 471 kts
2026-05-07 10:22 49.89467 -1.70039 29747 ft 471 kts
2026-05-07 10:22 49.92738 -1.69763 29033 ft 471 kts
2026-05-07 10:23 49.96005 -1.69464 28387 ft 469 kts
2026-05-07 10:23 49.99229 -1.68860 27976 ft 464 kts
2026-05-07 10:23 50.02375 -1.67884 27559 ft 460 kts 12°
2026-05-07 10:23 50.05450 -1.66561 27134 ft 456 kts 15°
2026-05-07 10:24 50.08482 -1.65108 26721 ft 452 kts 15°
2026-05-07 10:24 50.11468 -1.63640 26300 ft 448 kts 16°
2026-05-07 10:24 50.14429 -1.62183 25892 ft 444 kts 16°
2026-05-07 10:24 50.17369 -1.60742 25475 ft 441 kts 15°
2026-05-07 10:25 50.20287 -1.59316 25063 ft 438 kts 15°
2026-05-07 10:25 50.23185 -1.57903 24642 ft 435 kts 15°
2026-05-07 10:25 50.26059 -1.56501 24226 ft 431 kts 16°
2026-05-07 10:25 50.28915 -1.55107 23813 ft 428 kts 16°
2026-05-07 10:26 50.31749 -1.53723 23348 ft 425 kts 16°
2026-05-07 10:26 50.34561 -1.52347 22893 ft 421 kts 16°
2026-05-07 10:26 50.37345 -1.50982 22468 ft 417 kts 16°
2026-05-07 10:26 50.40106 -1.49627 22052 ft 413 kts 16°
2026-05-07 10:27 50.42836 -1.48286 21644 ft 410 kts 16°
2026-05-07 10:27 50.45546 -1.46953 21239 ft 406 kts 16°
2026-05-07 10:27 50.48232 -1.45629 20831 ft 403 kts 16°
2026-05-07 10:27 50.50896 -1.44292 20433 ft 401 kts 18°
2026-05-07 10:28 50.53495 -1.42750 20036 ft 398 kts 21°
2026-05-07 10:28 50.56013 -1.40947 19625 ft 397 kts 25°
2026-05-07 10:28 50.58452 -1.38931 19219 ft 395 kts 28°
2026-05-07 10:28 50.60855 -1.36865 18816 ft 393 kts 28°
2026-05-07 10:29 50.63208 -1.34827 18424 ft 390 kts 28°
2026-05-07 10:29 50.65619 -1.32740 17975 ft 389 kts 28°
2026-05-07 10:29 50.67951 -1.30726 17564 ft 386 kts 28°
2026-05-07 10:30 50.72630 -1.26684 16747 ft 381 kts 28°
2026-05-07 10:30 50.74948 -1.24680 16351 ft 378 kts 28°
2026-05-07 10:30 50.77209 -1.22569 15939 ft 376 kts 32°
2026-05-07 10:30 50.79438 -1.20309 15547 ft 375 kts 33°
2026-05-07 10:31 50.81619 -1.18058 15145 ft 373 kts 33°
2026-05-07 10:31 50.83783 -1.15816 14745 ft 371 kts 33°
2026-05-07 10:31 50.85943 -1.13579 14357 ft 370 kts 33°
2026-05-07 10:31 50.88060 -1.11387 13969 ft 368 kts 33°
2026-05-07 10:32 50.90227 -1.09143 13569 ft 364 kts 33°
2026-05-07 10:32 50.92283 -1.07011 13447 ft 351 kts 33°
2026-05-07 10:32 50.94289 -1.04930 13342 ft 338 kts 33°
2026-05-07 10:32 50.96224 -1.02919 13220 ft 326 kts 33°
2026-05-07 10:33 50.98091 -1.00979 13096 ft 315 kts 33°
2026-05-07 10:33 50.99840 -0.99034 13070 ft 300 kts 39°
2026-05-07 10:33 51.01370 -0.96904 13005 ft 287 kts 45°
2026-05-07 10:33 51.02733 -0.94603 12711 ft 283 kts 49°
2026-05-07 10:34 51.04036 -0.92272 12439 ft 279 kts 49°
2026-05-07 10:34 51.05318 -0.89967 12122 ft 279 kts 49°
2026-05-07 10:34 51.06648 -0.87583 11813 ft 294 kts 49°
2026-05-07 10:34 51.08013 -0.85143 11499 ft 295 kts 48°
2026-05-07 10:35 51.09377 -0.82707 11211 ft 294 kts 48°
2026-05-07 10:35 51.10737 -0.80279 10930 ft 293 kts 48°
2026-05-07 10:35 51.11815 -0.78351 10710 ft 291 kts 48°
2026-05-07 10:35 51.13168 -0.75931 10435 ft 290 kts 49°
2026-05-07 10:36 51.14504 -0.73538 10158 ft 288 kts 49°
2026-05-07 10:36 51.15850 -0.71126 9890 ft 285 kts 49°
2026-05-07 10:36 51.17135 -0.68821 9637 ft 279 kts 49°
2026-05-07 10:36 51.18415 -0.66525 9373 ft 274 kts 49°
2026-05-07 10:37 51.19671 -0.64266 9130 ft 268 kts 48°
2026-05-07 10:37 51.20897 -0.62063 8891 ft 262 kts 48°
2026-05-07 10:37 51.22094 -0.59906 8649 ft 258 kts 48°
2026-05-07 10:37 51.23284 -0.57762 8312 ft 257 kts 48°
2026-05-07 10:38 51.24462 -0.55635 8024 ft 255 kts 48°
2026-05-07 10:38 51.25628 -0.53530 7770 ft 251 kts 48°
2026-05-07 10:38 51.26778 -0.51455 7530 ft 248 kts 47°
2026-05-07 10:38 51.28100 -0.49758 7269 ft 243 kts 19°
2026-05-07 10:39 51.29744 -0.49438 7100 ft 242 kts 348°
2026-05-07 10:39 51.31315 -0.50591 7097 ft 263 kts 318°
2026-05-07 10:39 51.32401 -0.52972 7087 ft 269 kts 290°
2026-05-07 10:39 51.32835 -0.55883 7093 ft 270 kts 278°
2026-05-07 10:40 51.33083 -0.58862 7094 ft 270 kts 276°
2026-05-07 10:40 51.33295 -0.61837 7052 ft 266 kts 276°
2026-05-07 10:40 51.33501 -0.64760 6736 ft 265 kts 276°
2026-05-07 10:40 51.33706 -0.67693 6388 ft 264 kts 276°
2026-05-07 10:41 51.33907 -0.70604 6030 ft 262 kts 276°
2026-05-07 10:41 51.34100 -0.73493 5701 ft 260 kts 276°
2026-05-07 10:41 51.34289 -0.76345 5394 ft 253 kts 276°
2026-05-07 10:41 51.34470 -0.79075 5118 ft 240 kts 277°
2026-05-07 10:42 51.35000 -0.81513 4822 ft 229 kts 308°
2026-05-07 10:42 51.36211 -0.83013 4560 ft 219 kts 341°
2026-05-07 10:42 51.37692 -0.83367 4368 ft 213 kts 357°
2026-05-07 10:42 51.39176 -0.83363 4099 ft 214 kts
2026-05-07 10:43 51.40662 -0.83297 3817 ft 214 kts
2026-05-07 10:43 51.42151 -0.83220 3541 ft 214 kts
2026-05-07 10:43 51.43637 -0.83107 3264 ft 214 kts
2026-05-07 10:43 51.44968 -0.82115 3007 ft 213 kts 42°
2026-05-07 10:44 51.46006 -0.80418 3021 ft 214 kts 49°
2026-05-07 10:44 51.46969 -0.78619 3010 ft 207 kts 52°
2026-05-07 10:44 51.47542 -0.76639 3010 ft 188 kts 79°
2026-05-07 10:44 51.47674 -0.74588 3003 ft 183 kts 88°
2026-05-07 10:45 51.47711 -0.72560 2999 ft 177 kts 90°
2026-05-07 10:45 51.47717 -0.70650 2850 ft 167 kts 91°
2026-05-07 10:45 51.47716 -0.68833 2608 ft 163 kts 92°
2026-05-07 10:45 51.47713 -0.67016 2397 ft 161 kts 91°
2026-05-07 10:46 51.47713 -0.65258 2164 ft 153 kts 91°
2026-05-07 10:46 51.47715 -0.63501 1980 ft 161 kts 91°
2026-05-07 10:46 51.47717 -0.61690 1767 ft 163 kts 91°
2026-05-07 10:46 51.47721 -0.59882 1518 ft 157 kts 91°
2026-05-07 10:47 51.47724 -0.58163 1302 ft 152 kts 91°
2026-05-07 10:47 51.47728 -0.56468 1099 ft 152 kts 90°
2026-05-07 10:47 51.47732 -0.54779 902 ft 151 kts 91°
2026-05-07 10:47 51.47732 -0.53092 681 ft 151 kts 91°
2026-05-07 10:48 51.47733 -0.51408 476 ft 151 kts 91°
2026-05-07 10:48 51.47741 -0.49730 279 ft 150 kts 90°
2026-05-07 10:48 51.47753 -0.48058 108 ft 147 kts 90°
2026-05-07 10:48 51.47758 -0.46622 101 ft 100 kts 89°
2026-05-07 10:49 51.47761 -0.45852 94 ft 45 kts 89°
2026-05-07 10:49 51.47762 -0.45406 94 ft 27 kts 90°
2026-05-07 10:49 51.47759 -0.45256 96 ft 8 kts 102°
2026-05-07 10:49 51.47723 -0.45186 98 ft 9 kts 158°
2026-05-07 10:50 51.47664 -0.45174 97 ft 6 kts 180°
2026-05-07 10:50 51.47636 -0.45174 95 ft 0 kts 176°
2026-05-07 10:50 51.47624 -0.45173 95 ft 4 kts 179°
2026-05-07 10:50 51.47583 -0.45174 95 ft 7 kts 181°
2026-05-07 10:51 51.47537 -0.45168 97 ft 7 kts 158°
2026-05-07 10:51 51.47509 -0.45097 98 ft 10 kts 95°
2026-05-07 10:51 51.47510 -0.44969 98 ft 13 kts 89°
2026-05-07 10:51 51.47511 -0.44802 98 ft 17 kts 89°
2026-05-07 10:52 51.47511 -0.44679 98 ft 10 kts 91°
2026-05-07 10:52 51.47496 -0.44590 96 ft 8 kts 128°
2026-05-07 10:52 51.47442 -0.44560 95 ft 10 kts 176°
2026-05-07 10:52 51.47364 -0.44559 94 ft 13 kts 180°
2026-05-07 10:53 51.47284 -0.44559 95 ft 7 kts 180°
2026-05-07 10:53 51.47240 -0.44558 95 ft 6 kts 180°
2026-05-07 10:53 51.47209 -0.44556 95 ft 2 kts 164°
2026-05-07 10:53 51.47197 -0.44530 98 ft 5 kts 110°
2026-05-07 10:54 51.47191 -0.44472 98 ft 5 kts 91°
2026-05-07 10:54 51.47191 -0.44428 98 ft 4 kts 90°
2026-05-07 10:54 51.47191 -0.44410 98 ft 0 kts 90°